User: anonymous   Login
Location: Unspecified
(0.0000°N, 0.0000°E)
Time: 00:24:37
(UTC+00:00)
Language:

GOSAT - Orbit

View from above orbital plane
View from above orbital plane
View from above satellite
View from above satellite

Ground track
Ground track

The orbit data is extracted from the following two-line orbital elements,

1 33492U 09002A   15149.49690450 -.00000043  00000-0  85023-6 0  9991
2 33492 098.0714 258.6756 0001630 091.4797 268.6609 14.67546637339874
Epoch (UTC): 29 May 2015 11:55:32
Eccentricity: 0.0001630
inclination: 98.0714°
perigee height: 668 km
apogee height: 670 km
right ascension of ascending node: 258.6756°
argument of perigee: 91.4797°
revolutions per day: 14.67546637
mean anomaly at epoch: 268.6609°
orbit number at epoch: 33987

The dashed part of the orbit path shows where the satellite is in the earth's shadow,  

DLR